Location: Lane
(33.5226°N, 79.8788°W)
Time: 04:04:59
(UTC+00:00)

Transit 2A Rocket - Pass Details

Date: 08 October 2022
Orbit: 589 x 911 km, 66.7° (Epoch: 27 November)

Event Time Altitude Azimuth Distance (km) Brightness Sun altitude
Exits shadow 08:37:23 21° 73° (ENE) 1,355 6.9 -34.1°
Drops below altitude 10° 08:39:19 10° 52° (NE) 1,917 7.8 -33.7°
Sets 08:41:48 0° 40° (NE) 2,829 8.7 -33.3°
